XTAR-EUR

Last updated on May 23, 2019, 3:05 a.m. UTC

1 28542U 05005A   19142.25402749  .00000143  00000-0  00000+0 0  9998
2 28542   0.0542 106.9367 0003307 318.5641 294.5333  1.00271985 52286
UTC
Height (km)
Latitude
Longitude
Inclination
Orbital Period
UTC large
Height (km)
Speed (km/s)
/
Latitude / Longitude
Inclination (degrees)
Orbital Period (minutes)
Azimuth
Elevation
Range (km)
Doppler Factor
iOS Compass Heading
iOS Angle

Next 30 passes for location: Hong Kong

Rise time Rise Azimuth (degrees) Set time Set Azimuth (degrees) Duration Max altitude (degrees)

No matching passes for this satellites